#datetime,building,power
2022-04-02T00:00:00,sdl,8.72
2022-04-02T00:01:00,sdl,8.73
2022-04-02T00:02:00,sdl,8.82
2022-04-02T00:03:00,sdl,8.90
2022-04-02T00:04:00,sdl,8.84
2022-04-02T00:05:00,sdl,8.99
2022-04-02T00:06:00,sdl,8.95
2022-04-02T00:07:00,sdl,9.17
2022-04-02T00:08:00,sdl,10.11
2022-04-02T00:09:00,sdl,11.17
2022-04-02T00:10:00,sdl,11.32
2022-04-02T00:11:00,sdl,11.29
2022-04-02T00:12:00,sdl,11.97
2022-04-02T00:13:00,sdl,11.29
2022-04-02T00:14:00,sdl,11.86
2022-04-02T00:15:00,sdl,11.36
2022-04-02T00:16:00,sdl,11.35
2022-04-02T00:17:00,sdl,12.02
2022-04-02T00:18:00,sdl,11.79
2022-04-02T00:19:00,sdl,11.52
2022-04-02T00:20:00,sdl,11.15
2022-04-02T00:21:00,sdl,11.22
2022-04-02T00:22:00,sdl,11.66
2022-04-02T00:23:00,sdl,11.62
2022-04-02T00:24:00,sdl,11.69
2022-04-02T00:25:00,sdl,9.39
2022-04-02T00:26:00,sdl,9.48
2022-04-02T00:27:00,sdl,9.49
2022-04-02T00:28:00,sdl,9.51
2022-04-02T00:29:00,sdl,9.79
2022-04-02T00:30:00,sdl,9.71
2022-04-02T00:31:00,sdl,9.69
2022-04-02T00:32:00,sdl,9.25
2022-04-02T00:33:00,sdl,9.62
2022-04-02T00:34:00,sdl,9.25
2022-04-02T00:35:00,sdl,9.11
2022-04-02T00:36:00,sdl,9.15
2022-04-02T00:37:00,sdl,9.19
2022-04-02T00:38:00,sdl,9.28
2022-04-02T00:39:00,sdl,9.24
2022-04-02T00:40:00,sdl,9.24
2022-04-02T00:41:00,sdl,9.17
2022-04-02T00:42:00,sdl,9.89
2022-04-02T00:43:00,sdl,9.20
2022-04-02T00:44:00,sdl,9.13
2022-04-02T00:45:00,sdl,9.39
2022-04-02T00:46:00,sdl,9.42
2022-04-02T00:47:00,sdl,9.33
2022-04-02T00:48:00,sdl,9.33
2022-04-02T00:49:00,sdl,9.39
2022-04-02T00:50:00,sdl,9.47
2022-04-02T00:51:00,sdl,12.13
2022-04-02T00:52:00,sdl,11.55
2022-04-02T00:53:00,sdl,12.19
2022-04-02T00:54:00,sdl,11.94
2022-04-02T00:55:00,sdl,12.07
2022-04-02T00:56:00,sdl,11.41
2022-04-02T00:57:00,sdl,11.37
2022-04-02T00:58:00,sdl,11.38
2022-04-02T00:59:00,sdl,9.10
2022-04-02T01:00:00,sdl,9.14
2022-04-02T01:01:00,sdl,9.00
2022-04-02T01:02:00,sdl,8.60
2022-04-02T01:03:00,sdl,8.66
2022-04-02T01:04:00,sdl,8.63
2022-04-02T01:05:00,sdl,8.97
2022-04-02T01:06:00,sdl,8.98
2022-04-02T01:07:00,sdl,8.67
2022-04-02T01:08:00,sdl,8.71
2022-04-02T01:09:00,sdl,8.71
2022-04-02T01:10:00,sdl,9.18
2022-04-02T01:11:00,sdl,8.71
2022-04-02T01:12:00,sdl,8.65
2022-04-02T01:13:00,sdl,8.88
2022-04-02T01:14:00,sdl,8.76
2022-04-02T01:15:00,sdl,8.74
2022-04-02T01:16:00,sdl,8.73
2022-04-02T01:17:00,sdl,8.61
2022-04-02T01:18:00,sdl,8.66
2022-04-02T01:19:00,sdl,8.65
2022-04-02T01:20:00,sdl,10.78
2022-04-02T01:21:00,sdl,10.78
2022-04-02T01:22:00,sdl,10.73
2022-04-02T01:23:00,sdl,10.73
2022-04-02T01:24:00,sdl,10.89
2022-04-02T01:25:00,sdl,10.94
2022-04-02T01:26:00,sdl,10.92
2022-04-02T01:27:00,sdl,11.66
2022-04-02T01:28:00,sdl,10.97
2022-04-02T01:29:00,sdl,11.42
2022-04-02T01:30:00,sdl,11.02
2022-04-02T01:31:00,sdl,10.90
2022-04-02T01:32:00,sdl,10.86
2022-04-02T01:33:00,sdl,10.71
2022-04-02T01:34:00,sdl,10.80
2022-04-02T01:35:00,sdl,10.81
2022-04-02T01:36:00,sdl,10.90
2022-04-02T01:37:00,sdl,8.70
2022-04-02T01:38:00,sdl,8.60
2022-04-02T01:39:00,sdl,8.78
2022-04-02T01:40:00,sdl,8.76
2022-04-02T01:41:00,sdl,8.72
2022-04-02T01:42:00,sdl,9.02
2022-04-02T01:43:00,sdl,9.28
2022-04-02T01:44:00,sdl,9.20
2022-04-02T01:45:00,sdl,8.77
2022-04-02T01:46:00,sdl,8.79
2022-04-02T01:47:00,sdl,8.80
2022-04-02T01:48:00,sdl,8.81
2022-04-02T01:49:00,sdl,8.80
2022-04-02T01:50:00,sdl,10.01
2022-04-02T01:51:00,sdl,9.94
2022-04-02T01:52:00,sdl,9.98
2022-04-02T01:53:00,sdl,10.03
2022-04-02T01:54:00,sdl,10.04
2022-04-02T01:55:00,sdl,10.06
2022-04-02T01:56:00,sdl,9.98
2022-04-02T01:57:00,sdl,9.98
2022-04-02T01:58:00,sdl,10.00
2022-04-02T01:59:00,sdl,9.95
2022-04-02T02:00:00,sdl,10.02
2022-04-02T02:01:00,sdl,9.14
2022-04-02T02:02:00,sdl,9.13
2022-04-02T02:03:00,sdl,9.31
2022-04-02T02:04:00,sdl,9.46
2022-04-02T02:05:00,sdl,9.47
2022-04-02T02:06:00,sdl,9.32
2022-04-02T02:07:00,sdl,9.28
2022-04-02T02:08:00,sdl,9.16
2022-04-02T02:09:00,sdl,9.19
2022-04-02T02:10:00,sdl,9.05
2022-04-02T02:11:00,sdl,9.08
2022-04-02T02:12:00,sdl,9.11
2022-04-02T02:13:00,sdl,9.66
2022-04-02T02:14:00,sdl,9.51
2022-04-02T02:15:00,sdl,9.46
2022-04-02T02:16:00,sdl,9.12
2022-04-02T02:17:00,sdl,9.11
2022-04-02T02:18:00,sdl,9.10
2022-04-02T02:19:00,sdl,9.22
2022-04-02T02:20:00,sdl,11.39
2022-04-02T02:21:00,sdl,11.41
2022-04-02T02:22:00,sdl,11.34
2022-04-02T02:23:00,sdl,11.87
2022-04-02T02:24:00,sdl,11.44
2022-04-02T02:25:00,sdl,11.37
2022-04-02T02:26:00,sdl,11.49
2022-04-02T02:27:00,sdl,11.52
2022-04-02T02:28:00,sdl,12.12
2022-04-02T02:29:00,sdl,11.12
2022-04-02T02:30:00,sdl,11.75
2022-04-02T02:31:00,sdl,11.08
2022-04-02T02:32:00,sdl,11.08
2022-04-02T02:33:00,sdl,8.78
2022-04-02T02:34:00,sdl,9.22
2022-04-02T02:35:00,sdl,8.79
2022-04-02T02:36:00,sdl,8.75
2022-04-02T02:37:00,sdl,9.08
2022-04-02T02:38:00,sdl,8.81
2022-04-02T02:39:00,sdl,8.78
2022-04-02T02:40:00,sdl,8.70
2022-04-02T02:41:00,sdl,8.88
2022-04-02T02:42:00,sdl,8.89
2022-04-02T02:43:00,sdl,8.90
2022-04-02T02:44:00,sdl,8.85
2022-04-02T02:45:00,sdl,8.74
2022-04-02T02:46:00,sdl,11.01
2022-04-02T02:47:00,sdl,11.47
2022-04-02T02:48:00,sdl,11.31
2022-04-02T02:49:00,sdl,11.29
2022-04-02T02:50:00,sdl,10.87
2022-04-02T02:51:00,sdl,10.94
2022-04-02T02:52:00,sdl,10.94
2022-04-02T02:53:00,sdl,10.95
2022-04-02T02:54:00,sdl,10.95
2022-04-02T02:55:00,sdl,11.31
2022-04-02T02:56:00,sdl,11.39
2022-04-02T02:57:00,sdl,10.84
2022-04-02T02:58:00,sdl,10.81
2022-04-02T02:59:00,sdl,8.64
2022-04-02T03:00:00,sdl,9.47
2022-04-02T03:01:00,sdl,8.65
2022-04-02T03:02:00,sdl,8.61
2022-04-02T03:03:00,sdl,8.71
2022-04-02T03:04:00,sdl,8.70
2022-04-02T03:05:00,sdl,8.72
2022-04-02T03:06:00,sdl,8.72
2022-04-02T03:07:00,sdl,8.76
2022-04-02T03:08:00,sdl,8.64
2022-04-02T03:09:00,sdl,8.62
2022-04-02T03:10:00,sdl,8.80
2022-04-02T03:11:00,sdl,8.68
2022-04-02T03:12:00,sdl,8.68
2022-04-02T03:13:00,sdl,8.80
2022-04-02T03:14:00,sdl,8.78
2022-04-02T03:15:00,sdl,9.91
2022-04-02T03:16:00,sdl,9.54
2022-04-02T03:17:00,sdl,8.88
2022-04-02T03:18:00,sdl,8.85
2022-04-02T03:19:00,sdl,9.89
2022-04-02T03:20:00,sdl,9.93
2022-04-02T03:21:00,sdl,9.45
2022-04-02T03:22:00,sdl,9.58
2022-04-02T03:23:00,sdl,9.52
2022-04-02T03:24:00,sdl,9.49
2022-04-02T03:25:00,sdl,10.15
2022-04-02T03:26:00,sdl,9.33
2022-04-02T03:27:00,sdl,9.05
2022-04-02T03:28:00,sdl,9.07
2022-04-02T03:29:00,sdl,9.06
2022-04-02T03:30:00,sdl,9.03
2022-04-02T03:31:00,sdl,9.01
2022-04-02T03:32:00,sdl,8.91
2022-04-02T03:33:00,sdl,8.89
2022-04-02T03:34:00,sdl,11.23
2022-04-02T03:35:00,sdl,11.22
2022-04-02T03:36:00,sdl,11.19
2022-04-02T03:37:00,sdl,11.22
2022-04-02T03:38:00,sdl,11.16
2022-04-02T03:39:00,sdl,11.23
2022-04-02T03:40:00,sdl,11.73
2022-04-02T03:41:00,sdl,11.23
2022-04-02T03:42:00,sdl,11.73
2022-04-02T03:43:00,sdl,11.76
2022-04-02T03:44:00,sdl,11.41
2022-04-02T03:45:00,sdl,11.42
2022-04-02T03:46:00,sdl,11.44
2022-04-02T03:47:00,sdl,11.40
2022-04-02T03:48:00,sdl,11.49
2022-04-02T03:49:00,sdl,11.41
2022-04-02T03:50:00,sdl,11.38
2022-04-02T03:51:00,sdl,9.16
2022-04-02T03:52:00,sdl,9.25
2022-04-02T03:53:00,sdl,9.17
2022-04-02T03:54:00,sdl,9.60
2022-04-02T03:55:00,sdl,9.57
2022-04-02T03:56:00,sdl,9.16
2022-04-02T03:57:00,sdl,9.03
2022-04-02T03:58:00,sdl,9.30
2022-04-02T03:59:00,sdl,9.24
2022-04-02T04:00:00,sdl,9.24
2022-04-02T04:01:00,sdl,9.11
2022-04-02T04:02:00,sdl,9.97
2022-04-02T04:03:00,sdl,9.53
2022-04-02T04:04:00,sdl,9.59
2022-04-02T04:05:00,sdl,9.45
2022-04-02T04:06:00,sdl,9.44
2022-04-02T04:07:00,sdl,9.45
2022-04-02T04:08:00,sdl,9.38
2022-04-02T04:09:00,sdl,9.44
2022-04-02T04:10:00,sdl,9.61
2022-04-02T04:11:00,sdl,8.96
2022-04-02T04:12:00,sdl,8.98
2022-04-02T04:13:00,sdl,8.97
2022-04-02T04:14:00,sdl,8.98
2022-04-02T04:15:00,sdl,9.04
2022-04-02T04:16:00,sdl,10.56
2022-04-02T04:17:00,sdl,8.98
2022-04-02T04:18:00,sdl,9.01
2022-04-02T04:19:00,sdl,8.99
2022-04-02T04:20:00,sdl,9.00
2022-04-02T04:21:00,sdl,8.92
2022-04-02T04:22:00,sdl,8.98
2022-04-02T04:23:00,sdl,11.24
2022-04-02T04:24:00,sdl,12.13
2022-04-02T04:25:00,sdl,12.13
2022-04-02T04:26:00,sdl,11.29
2022-04-02T04:27:00,sdl,12.28
2022-04-02T04:28:00,sdl,11.45
2022-04-02T04:29:00,sdl,12.02
2022-04-02T04:30:00,sdl,11.46
2022-04-02T04:31:00,sdl,9.24
2022-04-02T04:32:00,sdl,9.09
2022-04-02T04:33:00,sdl,9.09
2022-04-02T04:34:00,sdl,8.81
2022-04-02T04:35:00,sdl,8.72
2022-04-02T04:36:00,sdl,8.73
2022-04-02T04:37:00,sdl,8.83
2022-04-02T04:38:00,sdl,8.79
2022-04-02T04:39:00,sdl,8.93
2022-04-02T04:40:00,sdl,9.12
2022-04-02T04:41:00,sdl,8.93
2022-04-02T04:42:00,sdl,8.85
2022-04-02T04:43:00,sdl,8.90
2022-04-02T04:44:00,sdl,8.73
2022-04-02T04:45:00,sdl,10.38
2022-04-02T04:46:00,sdl,9.80
2022-04-02T04:47:00,sdl,11.06
2022-04-02T04:48:00,sdl,10.99
2022-04-02T04:49:00,sdl,11.04
2022-04-02T04:50:00,sdl,11.04
2022-04-02T04:51:00,sdl,11.32
2022-04-02T04:52:00,sdl,11.12
2022-04-02T04:53:00,sdl,11.08
2022-04-02T04:54:00,sdl,11.07
2022-04-02T04:55:00,sdl,11.42
2022-04-02T04:56:00,sdl,11.56
2022-04-02T04:57:00,sdl,11.69
2022-04-02T04:58:00,sdl,11.16
2022-04-02T04:59:00,sdl,11.25
2022-04-02T05:00:00,sdl,11.25
2022-04-02T05:01:00,sdl,11.23
2022-04-02T05:02:00,sdl,11.21
2022-04-02T05:03:00,sdl,11.22
2022-04-02T05:04:00,sdl,8.93
2022-04-02T05:05:00,sdl,8.95
2022-04-02T05:06:00,sdl,8.94
2022-04-02T05:07:00,sdl,9.45
2022-04-02T05:08:00,sdl,8.97
2022-04-02T05:09:00,sdl,8.88
2022-04-02T05:10:00,sdl,8.86
2022-04-02T05:11:00,sdl,8.83
2022-04-02T05:12:00,sdl,8.83
2022-04-02T05:13:00,sdl,8.84
2022-04-02T05:14:00,sdl,8.85
2022-04-02T05:15:00,sdl,8.97
2022-04-02T05:16:00,sdl,9.11
2022-04-02T05:17:00,sdl,10.21
2022-04-02T05:18:00,sdl,9.09
2022-04-02T05:19:00,sdl,9.29
2022-04-02T05:20:00,sdl,8.90
2022-04-02T05:21:00,sdl,13.50
2022-04-02T05:22:00,sdl,13.80
2022-04-02T05:23:00,sdl,13.65
2022-04-02T05:24:00,sdl,13.53
2022-04-02T05:25:00,sdl,13.63
2022-04-02T05:26:00,sdl,14.01
2022-04-02T05:27:00,sdl,14.41
2022-04-02T05:28:00,sdl,13.57
2022-04-02T05:29:00,sdl,15.38
2022-04-02T05:30:00,sdl,14.05
2022-04-02T05:31:00,sdl,9.08
2022-04-02T05:32:00,sdl,9.12
2022-04-02T05:33:00,sdl,9.05
2022-04-02T05:34:00,sdl,9.03
2022-04-02T05:35:00,sdl,8.94
2022-04-02T05:36:00,sdl,8.97
2022-04-02T05:37:00,sdl,8.98
2022-04-02T05:38:00,sdl,8.97
2022-04-02T05:39:00,sdl,9.68
2022-04-02T05:40:00,sdl,9.09
2022-04-02T05:41:00,sdl,9.09
2022-04-02T05:42:00,sdl,9.24
2022-04-02T05:43:00,sdl,9.31
2022-04-02T05:44:00,sdl,9.25
2022-04-02T05:45:00,sdl,9.19
2022-04-02T05:46:00,sdl,11.44
2022-04-02T05:47:00,sdl,11.29
2022-04-02T05:48:00,sdl,11.28
2022-04-02T05:49:00,sdl,11.72
2022-04-02T05:50:00,sdl,11.22
2022-04-02T05:51:00,sdl,11.47
2022-04-02T05:52:00,sdl,11.27
2022-04-02T05:53:00,sdl,11.25
2022-04-02T05:54:00,sdl,11.25
2022-04-02T05:55:00,sdl,11.39
2022-04-02T05:56:00,sdl,11.79
2022-04-02T05:57:00,sdl,11.67
2022-04-02T05:58:00,sdl,11.29
2022-04-02T05:59:00,sdl,11.25
2022-04-02T06:00:00,sdl,9.03
2022-04-02T06:01:00,sdl,9.44
2022-04-02T06:02:00,sdl,9.16
2022-04-02T06:03:00,sdl,9.22
2022-04-02T06:04:00,sdl,9.26
2022-04-02T06:05:00,sdl,9.22
2022-04-02T06:06:00,sdl,8.82
2022-04-02T06:07:00,sdl,9.26
2022-04-02T06:08:00,sdl,8.80
2022-04-02T06:09:00,sdl,8.73
2022-04-02T06:10:00,sdl,8.82
2022-04-02T06:11:00,sdl,8.77
2022-04-02T06:12:00,sdl,9.89
2022-04-02T06:13:00,sdl,8.76
2022-04-02T06:14:00,sdl,8.77
2022-04-02T06:15:00,sdl,11.08
2022-04-02T06:16:00,sdl,10.98
2022-04-02T06:17:00,sdl,11.38
2022-04-02T06:18:00,sdl,10.95
2022-04-02T06:19:00,sdl,11.18
2022-04-02T06:20:00,sdl,11.22
2022-04-02T06:21:00,sdl,11.17
2022-04-02T06:22:00,sdl,11.67
2022-04-02T06:23:00,sdl,11.43
2022-04-02T06:24:00,sdl,11.08
2022-04-02T06:25:00,sdl,11.40
2022-04-02T06:26:00,sdl,9.65
2022-04-02T06:27:00,sdl,8.56
2022-04-02T06:28:00,sdl,8.69
2022-04-02T06:29:00,sdl,8.70
2022-04-02T06:30:00,sdl,8.67
2022-04-02T06:31:00,sdl,8.76
2022-04-02T06:32:00,sdl,8.75
2022-04-02T06:33:00,sdl,8.82
2022-04-02T06:34:00,sdl,8.81
2022-04-02T06:35:00,sdl,8.90
2022-04-02T06:36:00,sdl,8.88
2022-04-02T06:37:00,sdl,8.90
2022-04-02T06:38:00,sdl,8.89
2022-04-02T06:39:00,sdl,8.93
2022-04-02T06:40:00,sdl,8.85
2022-04-02T06:41:00,sdl,8.83
2022-04-02T06:42:00,sdl,8.84
2022-04-02T06:43:00,sdl,10.01
2022-04-02T06:44:00,sdl,8.86
2022-04-02T06:45:00,sdl,9.27
2022-04-02T06:46:00,sdl,8.74
2022-04-02T06:47:00,sdl,8.74
2022-04-02T06:48:00,sdl,8.75
2022-04-02T06:49:00,sdl,8.72
2022-04-02T06:50:00,sdl,8.81
2022-04-02T06:51:00,sdl,8.83
2022-04-02T06:52:00,sdl,8.99
2022-04-02T06:53:00,sdl,8.80
2022-04-02T06:54:00,sdl,8.85
2022-04-02T06:55:00,sdl,9.07
2022-04-02T06:56:00,sdl,9.04
2022-04-02T06:57:00,sdl,9.02
2022-04-02T06:58:00,sdl,8.86
2022-04-02T06:59:00,sdl,8.80
2022-04-02T07:00:00,sdl,11.01
2022-04-02T07:01:00,sdl,10.99
2022-04-02T07:02:00,sdl,10.98
2022-04-02T07:03:00,sdl,11.08
2022-04-02T07:04:00,sdl,11.52
2022-04-02T07:05:00,sdl,11.07
2022-04-02T07:06:00,sdl,11.10
2022-04-02T07:07:00,sdl,11.10
2022-04-02T07:08:00,sdl,11.27
2022-04-02T07:09:00,sdl,10.88
2022-04-02T07:10:00,sdl,10.93
2022-04-02T07:11:00,sdl,10.89
2022-04-02T07:12:00,sdl,11.02
2022-04-02T07:13:00,sdl,11.00
2022-04-02T07:14:00,sdl,11.03
2022-04-02T07:15:00,sdl,11.10
2022-04-02T07:16:00,sdl,8.88
2022-04-02T07:17:00,sdl,8.88
2022-04-02T07:18:00,sdl,8.92
2022-04-02T07:19:00,sdl,8.84
2022-04-02T07:20:00,sdl,8.99
2022-04-02T07:21:00,sdl,9.28
2022-04-02T07:22:00,sdl,9.25
2022-04-02T07:23:00,sdl,8.69
2022-04-02T07:24:00,sdl,8.66
2022-04-02T07:25:00,sdl,9.09
2022-04-02T07:26:00,sdl,9.09
2022-04-02T07:27:00,sdl,8.80
2022-04-02T07:28:00,sdl,8.78
2022-04-02T07:29:00,sdl,8.82
2022-04-02T07:30:00,sdl,8.85
2022-04-02T07:31:00,sdl,8.85
2022-04-02T07:32:00,sdl,8.85
2022-04-02T07:33:00,sdl,9.34
2022-04-02T07:34:00,sdl,8.81
2022-04-02T07:35:00,sdl,8.79
2022-04-02T07:36:00,sdl,8.81
2022-04-02T07:37:00,sdl,8.83
2022-04-02T07:38:00,sdl,8.42
2022-04-02T07:39:00,sdl,9.59
2022-04-02T07:40:00,sdl,8.48
2022-04-02T07:41:00,sdl,8.98
2022-04-02T07:42:00,sdl,8.51
2022-04-02T07:43:00,sdl,8.47
2022-04-02T07:44:00,sdl,8.41
2022-04-02T07:45:00,sdl,8.37
2022-04-02T07:46:00,sdl,8.32
2022-04-02T07:47:00,sdl,8.36
2022-04-02T07:48:00,sdl,8.36
2022-04-02T07:49:00,sdl,8.32
2022-04-02T07:50:00,sdl,10.54
2022-04-02T07:51:00,sdl,10.95
2022-04-02T07:52:00,sdl,11.00
2022-04-02T07:53:00,sdl,11.03
2022-04-02T07:54:00,sdl,10.98
2022-04-02T07:55:00,sdl,10.88
2022-04-02T07:56:00,sdl,10.75
2022-04-02T07:57:00,sdl,10.81
2022-04-02T07:58:00,sdl,10.76
2022-04-02T07:59:00,sdl,11.25
2022-04-02T08:00:00,sdl,8.57
2022-04-02T08:01:00,sdl,8.92
2022-04-02T08:02:00,sdl,8.55
2022-04-02T08:03:00,sdl,8.66
2022-04-02T08:04:00,sdl,8.58
2022-04-02T08:05:00,sdl,8.67
2022-04-02T08:06:00,sdl,8.75
2022-04-02T08:07:00,sdl,8.79
2022-04-02T08:08:00,sdl,8.67
2022-04-02T08:09:00,sdl,8.61
2022-04-02T08:10:00,sdl,8.55
2022-04-02T08:11:00,sdl,8.57
2022-04-02T08:12:00,sdl,8.66
2022-04-02T08:13:00,sdl,8.68
2022-04-02T08:14:00,sdl,10.90
2022-04-02T08:15:00,sdl,10.97
2022-04-02T08:16:00,sdl,11.03
2022-04-02T08:17:00,sdl,11.00
2022-04-02T08:18:00,sdl,10.91
2022-04-02T08:19:00,sdl,10.93
2022-04-02T08:20:00,sdl,11.44
2022-04-02T08:21:00,sdl,11.94
2022-04-02T08:22:00,sdl,10.87
2022-04-02T08:23:00,sdl,10.80
2022-04-02T08:24:00,sdl,10.80
2022-04-02T08:25:00,sdl,10.84
2022-04-02T08:26:00,sdl,10.79
2022-04-02T08:27:00,sdl,11.39
2022-04-02T08:28:00,sdl,11.31
2022-04-02T08:29:00,sdl,11.32
2022-04-02T08:30:00,sdl,11.31
2022-04-02T08:31:00,sdl,9.33
2022-04-02T08:32:00,sdl,9.35
2022-04-02T08:33:00,sdl,8.89
2022-04-02T08:34:00,sdl,8.90
2022-04-02T08:35:00,sdl,8.92
2022-04-02T08:36:00,sdl,8.89
2022-04-02T08:37:00,sdl,8.73
2022-04-02T08:38:00,sdl,9.29
2022-04-02T08:39:00,sdl,8.90
2022-04-02T08:40:00,sdl,8.87
2022-04-02T08:41:00,sdl,8.88
2022-04-02T08:42:00,sdl,8.81
2022-04-02T08:43:00,sdl,8.76
2022-04-02T08:44:00,sdl,8.75
2022-04-02T08:45:00,sdl,8.70
2022-04-02T08:46:00,sdl,8.75
2022-04-02T08:47:00,sdl,8.72
2022-04-02T08:48:00,sdl,8.68
2022-04-02T08:49:00,sdl,8.72
2022-04-02T08:50:00,sdl,8.71
2022-04-02T08:51:00,sdl,8.82
2022-04-02T08:52:00,sdl,8.82
2022-04-02T08:53:00,sdl,8.90
2022-04-02T08:54:00,sdl,8.78
2022-04-02T08:55:00,sdl,8.81
2022-04-02T08:56:00,sdl,8.70
2022-04-02T08:57:00,sdl,8.72
2022-04-02T08:58:00,sdl,9.31
2022-04-02T08:59:00,sdl,8.66
2022-04-02T09:00:00,sdl,9.17
2022-04-02T09:01:00,sdl,9.07
2022-04-02T09:02:00,sdl,8.69
2022-04-02T09:03:00,sdl,8.85
2022-04-02T09:04:00,sdl,8.79
2022-04-02T09:05:00,sdl,9.51
2022-04-02T09:06:00,sdl,8.91
2022-04-02T09:07:00,sdl,9.03
2022-04-02T09:08:00,sdl,8.40
2022-04-02T09:09:00,sdl,8.52
2022-04-02T09:10:00,sdl,9.16
2022-04-02T09:11:00,sdl,10.73
2022-04-02T09:12:00,sdl,10.72
2022-04-02T09:13:00,sdl,11.35
2022-04-02T09:14:00,sdl,11.39
2022-04-02T09:15:00,sdl,11.35
2022-04-02T09:16:00,sdl,11.42
2022-04-02T09:17:00,sdl,11.11
2022-04-02T09:18:00,sdl,11.10
2022-04-02T09:19:00,sdl,11.11
2022-04-02T09:20:00,sdl,10.69
2022-04-02T09:21:00,sdl,10.58
2022-04-02T09:22:00,sdl,10.60
2022-04-02T09:23:00,sdl,10.76
2022-04-02T09:24:00,sdl,10.70
2022-04-02T09:25:00,sdl,11.39
2022-04-02T09:26:00,sdl,10.81
2022-04-02T09:27:00,sdl,8.70
2022-04-02T09:28:00,sdl,9.11
2022-04-02T09:29:00,sdl,9.03
2022-04-02T09:30:00,sdl,8.56
2022-04-02T09:31:00,sdl,8.58
2022-04-02T09:32:00,sdl,8.51
2022-04-02T09:33:00,sdl,8.50
2022-04-02T09:34:00,sdl,8.48
2022-04-02T09:35:00,sdl,8.50
2022-04-02T09:36:00,sdl,9.52
2022-04-02T09:37:00,sdl,8.62
2022-04-02T09:38:00,sdl,8.71
2022-04-02T09:39:00,sdl,8.78
2022-04-02T09:40:00,sdl,9.29
2022-04-02T09:41:00,sdl,8.76
2022-04-02T09:42:00,sdl,8.76
2022-04-02T09:43:00,sdl,8.75
2022-04-02T09:44:00,sdl,9.78
2022-04-02T09:45:00,sdl,8.65
2022-04-02T09:46:00,sdl,8.73
2022-04-02T09:47:00,sdl,8.69
2022-04-02T09:48:00,sdl,8.86
2022-04-02T09:49:00,sdl,11.02
2022-04-02T09:50:00,sdl,11.85
2022-04-02T09:51:00,sdl,11.84
2022-04-02T09:52:00,sdl,11.16
2022-04-02T09:53:00,sdl,11.00
2022-04-02T09:54:00,sdl,10.98
2022-04-02T09:55:00,sdl,11.38
2022-04-02T09:56:00,sdl,11.29
2022-04-02T09:57:00,sdl,11.72
2022-04-02T09:58:00,sdl,11.72
2022-04-02T09:59:00,sdl,9.62
2022-04-02T10:00:00,sdl,8.72
2022-04-02T10:01:00,sdl,8.65
2022-04-02T10:02:00,sdl,8.53
2022-04-02T10:03:00,sdl,8.69
2022-04-02T10:04:00,sdl,8.64
2022-04-02T10:05:00,sdl,9.33
2022-04-02T10:06:00,sdl,9.06
2022-04-02T10:07:00,sdl,8.53
2022-04-02T10:08:00,sdl,8.50
2022-04-02T10:09:00,sdl,8.35
2022-04-02T10:10:00,sdl,8.36
2022-04-02T10:11:00,sdl,8.41
2022-04-02T10:12:00,sdl,8.39
2022-04-02T10:13:00,sdl,8.41
2022-04-02T10:14:00,sdl,8.38
2022-04-02T10:15:00,sdl,8.91
2022-04-02T10:16:00,sdl,8.83
2022-04-02T10:17:00,sdl,8.81
2022-04-02T10:18:00,sdl,8.75
2022-04-02T10:19:00,sdl,8.70
2022-04-02T10:20:00,sdl,9.18
2022-04-02T10:21:00,sdl,9.08
2022-04-02T10:22:00,sdl,10.94
2022-04-02T10:23:00,sdl,10.86
2022-04-02T10:24:00,sdl,11.59
2022-04-02T10:25:00,sdl,11.05
2022-04-02T10:26:00,sdl,11.43
2022-04-02T10:27:00,sdl,11.81
2022-04-02T10:28:00,sdl,11.22
2022-04-02T10:29:00,sdl,11.21
2022-04-02T10:30:00,sdl,11.55
2022-04-02T10:31:00,sdl,12.21
2022-04-02T10:32:00,sdl,12.30
2022-04-02T10:33:00,sdl,12.45
2022-04-02T10:34:00,sdl,12.45
2022-04-02T10:35:00,sdl,12.42
2022-04-02T10:36:00,sdl,12.43
2022-04-02T10:37:00,sdl,13.07
2022-04-02T10:38:00,sdl,12.60
2022-04-02T10:39:00,sdl,13.02
2022-04-02T10:40:00,sdl,11.51
2022-04-02T10:41:00,sdl,10.18
2022-04-02T10:42:00,sdl,10.16
2022-04-02T10:43:00,sdl,10.58
2022-04-02T10:44:00,sdl,10.41
2022-04-02T10:45:00,sdl,9.89
2022-04-02T10:46:00,sdl,12.33
2022-04-02T10:47:00,sdl,12.05
2022-04-02T10:48:00,sdl,13.29
2022-04-02T10:49:00,sdl,12.28
2022-04-02T10:50:00,sdl,12.38
2022-04-02T10:51:00,sdl,12.40
2022-04-02T10:52:00,sdl,12.41
2022-04-02T10:53:00,sdl,12.50
2022-04-02T10:54:00,sdl,12.50
2022-04-02T10:55:00,sdl,12.52
2022-04-02T10:56:00,sdl,10.10
2022-04-02T10:57:00,sdl,12.36
2022-04-02T10:58:00,sdl,12.79
2022-04-02T10:59:00,sdl,12.83
2022-04-02T11:00:00,sdl,12.40
2022-04-02T11:01:00,sdl,12.42
2022-04-02T11:02:00,sdl,12.45
2022-04-02T11:03:00,sdl,12.51
2022-04-02T11:04:00,sdl,12.64
2022-04-02T11:05:00,sdl,17.83
2022-04-02T11:06:00,sdl,17.31
2022-04-02T11:07:00,sdl,17.14
2022-04-02T11:08:00,sdl,17.01
2022-04-02T11:09:00,sdl,17.03
2022-04-02T11:10:00,sdl,16.94
2022-04-02T11:11:00,sdl,16.52
2022-04-02T11:12:00,sdl,16.50
2022-04-02T11:13:00,sdl,16.53
2022-04-02T11:14:00,sdl,14.23
2022-04-02T11:15:00,sdl,14.44
2022-04-02T11:16:00,sdl,14.15
2022-04-02T11:17:00,sdl,14.05
2022-04-02T11:18:00,sdl,9.48
2022-04-02T11:19:00,sdl,9.67
2022-04-02T11:20:00,sdl,10.34
2022-04-02T11:21:00,sdl,9.89
2022-04-02T11:22:00,sdl,9.24
2022-04-02T11:23:00,sdl,11.34
2022-04-02T11:24:00,sdl,11.29
2022-04-02T11:25:00,sdl,10.78
2022-04-02T11:26:00,sdl,10.97
2022-04-02T11:27:00,sdl,11.40
2022-04-02T11:28:00,sdl,11.32
2022-04-02T11:29:00,sdl,11.24
2022-04-02T11:30:00,sdl,10.89
2022-04-02T11:31:00,sdl,10.84
2022-04-02T11:32:00,sdl,10.78
2022-04-02T11:33:00,sdl,10.72
2022-04-02T11:34:00,sdl,10.63
2022-04-02T11:35:00,sdl,10.63
2022-04-02T11:36:00,sdl,10.63
2022-04-02T11:37:00,sdl,10.65
2022-04-02T11:38:00,sdl,8.55
2022-04-02T11:39:00,sdl,8.54
2022-04-02T11:40:00,sdl,8.54
2022-04-02T11:41:00,sdl,8.56
2022-04-02T11:42:00,sdl,8.66
2022-04-02T11:43:00,sdl,8.66
2022-04-02T11:44:00,sdl,8.64
2022-04-02T11:45:00,sdl,8.61
2022-04-02T11:46:00,sdl,9.09
2022-04-02T11:47:00,sdl,8.50
2022-04-02T11:48:00,sdl,8.49
2022-04-02T11:49:00,sdl,8.37
2022-04-02T11:50:00,sdl,8.39
2022-04-02T11:51:00,sdl,8.55
2022-04-02T11:52:00,sdl,8.37
2022-04-02T11:53:00,sdl,10.58
2022-04-02T11:54:00,sdl,10.57
2022-04-02T11:55:00,sdl,10.52
2022-04-02T11:56:00,sdl,10.43
2022-04-02T11:57:00,sdl,10.90
2022-04-02T11:58:00,sdl,11.19
2022-04-02T11:59:00,sdl,11.27
2022-04-02T12:00:00,sdl,10.89
2022-04-02T12:01:00,sdl,10.94
2022-04-02T12:02:00,sdl,11.02
2022-04-02T12:03:00,sdl,8.86
2022-04-02T12:04:00,sdl,8.74
2022-04-02T12:05:00,sdl,9.16
2022-04-02T12:06:00,sdl,9.16
2022-04-02T12:07:00,sdl,8.61
2022-04-02T12:08:00,sdl,8.55
2022-04-02T12:09:00,sdl,8.54
2022-04-02T12:10:00,sdl,8.54
2022-04-02T12:11:00,sdl,8.72
2022-04-02T12:12:00,sdl,8.60
2022-04-02T12:13:00,sdl,8.59
2022-04-02T12:14:00,sdl,9.07
2022-04-02T12:15:00,sdl,8.70
2022-04-02T12:16:00,sdl,8.73
2022-04-02T12:17:00,sdl,8.69
2022-04-02T12:18:00,sdl,8.65
2022-04-02T12:19:00,sdl,8.59
2022-04-02T12:20:00,sdl,8.53
2022-04-02T12:21:00,sdl,8.67
2022-04-02T12:22:00,sdl,8.68
2022-04-02T12:23:00,sdl,8.71
2022-04-02T12:24:00,sdl,9.56
2022-04-02T12:25:00,sdl,8.78
2022-04-02T12:26:00,sdl,9.19
2022-04-02T12:27:00,sdl,9.28
2022-04-02T12:28:00,sdl,8.79
2022-04-02T12:29:00,sdl,8.76
2022-04-02T12:30:00,sdl,9.36
2022-04-02T12:31:00,sdl,9.42
2022-04-02T12:32:00,sdl,8.77
2022-04-02T12:33:00,sdl,8.71
2022-04-02T12:34:00,sdl,8.65
2022-04-02T12:35:00,sdl,8.81
2022-04-02T12:36:00,sdl,8.65
2022-04-02T12:37:00,sdl,8.69
2022-04-02T12:38:00,sdl,10.99
2022-04-02T12:39:00,sdl,11.14
2022-04-02T12:40:00,sdl,11.04
2022-04-02T12:41:00,sdl,11.10
2022-04-02T12:42:00,sdl,11.08
2022-04-02T12:43:00,sdl,11.51
2022-04-02T12:44:00,sdl,10.57
2022-04-02T12:45:00,sdl,10.58
2022-04-02T12:46:00,sdl,10.64
2022-04-02T12:47:00,sdl,10.63
2022-04-02T12:48:00,sdl,10.64
2022-04-02T12:49:00,sdl,10.69
2022-04-02T12:50:00,sdl,10.67
2022-04-02T12:51:00,sdl,10.64
2022-04-02T12:52:00,sdl,11.28
2022-04-02T12:53:00,sdl,11.41
2022-04-02T12:54:00,sdl,11.09
2022-04-02T12:55:00,sdl,11.09
2022-04-02T12:56:00,sdl,8.44
2022-04-02T12:57:00,sdl,8.53
2022-04-02T12:58:00,sdl,8.56
2022-04-02T12:59:00,sdl,8.54
2022-04-02T13:00:00,sdl,8.73
2022-04-02T13:01:00,sdl,8.72
2022-04-02T13:02:00,sdl,9.49
2022-04-02T13:03:00,sdl,8.95
2022-04-02T13:04:00,sdl,8.86
2022-04-02T13:05:00,sdl,8.84
2022-04-02T13:06:00,sdl,8.73
2022-04-02T13:07:00,sdl,8.58
2022-04-02T13:08:00,sdl,8.55
2022-04-02T13:09:00,sdl,8.58
2022-04-02T13:10:00,sdl,8.55
2022-04-02T13:11:00,sdl,8.58
2022-04-02T13:12:00,sdl,8.54
2022-04-02T13:13:00,sdl,8.58
2022-04-02T13:14:00,sdl,8.65
2022-04-02T13:15:00,sdl,8.66
2022-04-02T13:16:00,sdl,13.28
2022-04-02T13:17:00,sdl,13.14
2022-04-02T13:18:00,sdl,13.14
2022-04-02T13:19:00,sdl,13.13
2022-04-02T13:20:00,sdl,13.02
2022-04-02T13:21:00,sdl,12.99
2022-04-02T13:22:00,sdl,13.41
2022-04-02T13:23:00,sdl,13.35
2022-04-02T13:24:00,sdl,13.35
2022-04-02T13:25:00,sdl,12.93
2022-04-02T13:26:00,sdl,12.99
2022-04-02T13:27:00,sdl,13.47
2022-04-02T13:28:00,sdl,12.92
2022-04-02T13:29:00,sdl,13.18
2022-04-02T13:30:00,sdl,8.48
2022-04-02T13:31:00,sdl,8.50
2022-04-02T13:32:00,sdl,8.70
2022-04-02T13:33:00,sdl,8.66
2022-04-02T13:34:00,sdl,8.64